Location: Rumah Matu
(2.6167°N, 113.7333°E)
Time: 21:49:41
(UTC+00:00)

Daily predictions for brighter satellites

Satellite Brightness Start Highest point End
(mag) Time Altitude Azimuth Time Altitude Azimuth Time Altitude Azimuth
OAO 3 Rocket 4.1 12:01:33 10° WSW 12:05:50 42° NW 12:05:50 42° NW
Iridium 4 Rocket 4.5 12:03:40 10° NNW 12:08:15 44° W 12:13:17 10° SSW
Timation 2 Rocket 4.5 12:20:22 10° NNW 12:26:54 60° WSW 12:28:11 50° SSW
ATLAS 2A CENTAUR R/B 4.3 12:13:51 10° SW 12:52:16 61° SSE 12:53:00 61° SSE
COSMOS 2455 4.3 19:43:40 31° NE 19:43:40 31° NE 19:46:56 10° NE
ARIANE 5 DEB (SYLDA 5A) 4.0 19:51:09 58° ESE 19:51:09 58° ESE 20:03:37 10° E
ATLAS 3B R/B 4.0 19:50:39 19° N 19:55:25 39° ENE 20:02:19 10° SE
Atlas Centaur 2 4.1 19:54:23 23° S 19:55:54 26° SSE 20:00:36 10° E
ARIANE 44P R/B 3.7 20:09:04 46° ENE 20:09:04 46° ENE 20:15:28 10° E
Cosmos 1937 Rocket 4.2 20:08:03 46° NE 20:08:50 50° ENE 20:13:56 10° SSE
Cosmos 1315 Rocket 4.3 20:15:51 36° ESE 20:15:51 36° ESE 20:18:56 10° SSE
Cosmos 2074 Rocket 4.2 20:10:43 10° N 20:16:53 70° E 20:23:04 10° S
BLOCK DM-SL R/B 3.2 20:19:37 68° SSW 20:19:44 68° S 20:23:49 10° E
SL-8 R/B 3.7 20:33:38 66° N 20:34:14 78° NE 20:39:02 10° SE
MOS 1 Rocket 3.0 20:35:45 10° S 20:39:49 66° SW 20:39:49 66° SW
Cosmos 1782 Rocket 3.4 20:41:24 33° N 20:43:19 84° W 20:47:45 10° S
BLOCK DM-SL R/B 1.5 20:55:03 67° S 20:55:03 67° S 20:57:49 10° E
GPS 2-17 Rocket1 4.2 20:53:16 20° SW 20:55:53 37° SSE 21:00:01 10° E
GPS 2-12 Rocket1 4.1 20:55:42 25° NNW 20:57:27 35° NNE 21:01:30 10° E
ISS -0.5 21:00:16 10° SSE 21:01:49 13° SE 21:03:22 10° E
Cosmos 2221 Rocket 4.3 20:59:56 10° SSW 21:05:41 23° NW 21:07:50 10° NNW
GP-B 3.7 21:01:16 10° SSW 21:05:16 33° W 21:07:12 23° NW
Cosmos 2327 Rocket 4.4 20:59:17 10° N 21:05:28 72° W 21:11:34 10° S
SL-08 R/B 3.9 21:01:33 10° SSW 21:05:41 33° WSW 21:07:26 25° WNW
H-2A R/B 1.5 21:11:33 29° WNW 21:12:59 73° SSW 21:21:41 10° SE
Cosmos 1707 2.9 21:11:16 10° SSW 21:14:59 46° W 21:18:43 10° NNW
Cosmos 1805 4.1 21:14:32 23° WNW 21:15:46 27° W 21:19:08 10° SSW
Okean 2 3.7 21:12:38 10° SSW 21:16:27 39° W 21:20:15 10° NNW
Cosmos 372 Rocket 4.2 21:11:41 10° NNW 21:16:34 46° WSW 21:21:31 10° S
Delta 7925 Rocket 4.3 21:13:44 14° NW 21:19:17 51° NNE 21:24:23 10° E
ATLAS 5 CENTAUR R/B 3.4 21:13:24 10° N 21:20:08 58° ENE 21:27:23 10° SE
BREEZE-M DEB (TANK) 1.7 21:20:27 29° W 21:21:08 39° SW 21:23:52 10° SSE
Cosmos 1378 Rocket 3.9 21:17:26 10° SSW 21:21:31 41° W 21:25:36 10° NNW
Tiangong 3.2 21:22:20 13° SW 21:22:48 13° SW 21:24:27 10° SSW
SL-27 R/B 3.8 21:20:42 10° S 21:23:52 40° ESE 21:26:57 10° NNE
Meteor 1-31 Rocket 2.6 21:20:42 10° N 21:24:26 66° WNW 21:28:11 10° SSW
COSMOS 2455 4.4 21:27:00 13° WNW 21:27:00 13° WNW 21:29:41 10° NW
Cosmos 2341 Rocket 4.1 21:22:14 10° N 21:28:29 88° E 21:34:43 10° S
Okean 2 Rocket 3.1 21:24:36 10° N 21:29:07 90° NE 21:33:38 10° S
Cosmos 1833 4.3 21:25:01 10° SSW 21:30:45 84° ESE 21:36:25 10° NNE
USA 305 3.1 21:27:53 10° SSW 21:32:05 74° SE 21:36:14 10° NE
Cosmos 1975 Rocket 4.4 21:28:12 10° SSE 21:32:20 44° E 21:36:29 10° NNE
Cosmos 2360 4.2 21:30:05 10° NNW 21:35:47 77° WSW 21:41:29 10° S
Cosmos 1980 Rocket 3.1 21:33:37 10° N 21:39:08 54° ENE 21:44:38 10° SSE
Meteor 1-22 Rocket 4.2 21:34:22 10° NNW 21:40:04 66° W 21:45:33 10° S
Atlas Centaur 2 2.0 21:39:15 10° WSW 21:45:20 76° NNW 21:50:03 10° NE
OE (NEXTSAT) 4.3 21:42:02 10° NW 21:45:24 68° SW 21:48:46 10° SE
ATLAS 3B R/B 3.9 21:39:50 10° WNW 21:45:53 26° WSW 21:51:58 10° SSW
NOAA 11 4.5 21:42:22 10° NNE 21:47:45 75° ESE 21:53:10 10° S
Cosmos 2298 Rocket 4.0 21:47:04 10° NNW 21:52:20 74° WSW 21:57:37 10° S
Ariane H10 2.8 21:53:49 10° W 22:06:50 89° N 22:10:01 10° E
